VK1ET-13 Weather Reports


Display with metric or nautical units.
time (UTC)temp
F
wind
direction
speed
MPH
gust
MPH
rain 1hr
in
rain 24hr
in
rain mn
in
humidity
%
barometer
mb
20260905044522 53 354 4.0 9.0 0.00 0.00 0.00 93 1010.1
20260905043536 53 338 5.0 10.0 0.00 0.00 0.00 91 1010.5
20260905042534 54 322 7.0 17.0 0.00 0.00 0.00 91 1011.0
20260905041521 54 325 6.0 13.0 0.00 0.00 0.00 90 1011.4
20260905040535 54 294 6.0 11.0 0.00 0.00 0.00 89 1011.5
20260905035543 55 314 7.0 15.0 0.00 0.00 0.00 86 1011.8
20260905034522 55 289 6.0 16.0 0.00 0.00 0.00 87 1011.8
20260905033530 55 277 7.0 14.0 0.00 0.00 0.00 86 1011.9
20260905032534 56 284 8.0 19.0 0.00 0.00 0.00 84 1011.6
20260905031520 57 301 9.0 17.0 0.00 0.00 0.00 80 1012.0
20260905030542 58 312 6.0 15.0 0.00 0.00 0.00 77 1011.4
20260905025540 58 314 9.0 16.0 0.00 0.00 0.00 79 1011.4
20260905024519 58 297 9.0 18.0 0.00 0.00 0.00 78 1011.6
20260905023525 58 286 7.0 14.0 0.00 0.00 0.00 76 1011.6
20260905022520 58 290 6.0 10.0 0.00 0.00 0.00 83 1011.3
20260905021526 58 325 6.0 12.0 0.00 0.00 0.00 83 1011.3
20260905020533 57 332 5.0 13.0 0.00 0.00 0.00 84 1011.4
20260905015518 57 328 5.0 9.0 0.00 0.00 0.00 86 1011.5
20260905014524 57 345 4.0 8.0 0.00 0.00 0.00 87 1011.5
20260905013531 57 334 3.0 7.0 0.00 0.00 0.00 89 1011.9
20260905012535 56 348 3.0 7.0 0.00 0.00 0.00 90 1012.2
20260905011523 56 351 4.0 11.0 0.00 0.00 0.00 90 1012.1
20260905010529 55 335 3.0 6.0 0.00 0.00 0.00 92 1012.2
20260905005535 54 2 2.0 5.0 0.00 0.00 0.00 92 1012.4
20260905004523 54 2 3.0 6.0 0.00 0.00 0.00 93 1012.5
20260905003536 54 7 3.0 5.0 0.00 0.00 0.00 93 1012.8
20260905002517 53 2 3.0 8.0 0.00 0.00 0.00 92 1013.0
20260905001523 54 353 2.0 6.0 0.00 0.00 0.00 91 1013.5
20260905000539 54 346 2.0 6.0 0.00 0.00 0.00 90 1013.8
20260904235517 54 305 3.0 6.0 0.00 0.00 0.00 90 1013.9
20260904234523 54 334 4.0 8.0 0.00 0.00 0.00 89 1013.8
20260904233530 54 347 4.0 6.0 0.00 0.00 0.00 88 1013.4
20260904232536 53 350 3.0 6.0 0.00 0.00 0.00 90 1013.1
20260904231521 53 6 3.0 6.0 0.00 0.00 0.00 90 1013.6
20260904230528 54 360 4.0 7.0 0.00 0.00 0.00 86 1013.8
20260904225535 53 355 3.0 5.0 0.00 0.00 0.00 87 1014.1
20260904224521 53 359 4.0 7.0 0.00 0.00 0.00 87 1014.0
20260904223528 53 3 4.0 7.0 0.00 0.00 0.00 85 1014.1
20260904222534 54 357 3.0 6.0 0.00 0.00 0.00 82 1014.5
20260904221520 56 349 4.0 12.0 0.00 0.00 0.00 76 1014.6
20260904220526 55 351 3.0 6.0 0.00 0.00 0.00 78 1014.6
20260904215532 54 360 4.0 7.0 0.00 0.00 0.00 79 1014.6
20260904214517 53 9 4.0 6.0 0.00 0.00 0.00 80 1014.5
20260904213524 53 7 3.0 6.0 0.00 0.00 0.00 79 1014.5
20260904212537 52 31 2.0 4.0 0.00 0.00 0.00 80 1014.5
20260904211543 51 32 1.0 4.0 0.00 0.00 0.00 82 1014.4
20260904210521 51 38 2.0 4.0 0.00 0.00 0.00 83 1014.1
20260904205535 51 27 2.0 6.0 0.00 0.00 0.00 83 1014.2
20260904204533 50 12 3.0 6.0 0.00 0.00 0.00 84 1014.6
20260904203522 49 12 2.0 4.0 0.00 0.00 0.00 86 1014.5
20260904202527 49 25 2.0 5.0 0.00 0.00 0.00 87 1014.6
20260904201542 49 27 2.0 4.0 0.00 0.00 0.00 87 1014.4
20260904200523 49 33 2.0 4.0 0.00 0.00 0.00 87 1014.5
20260904195532 49 27 2.0 4.0 0.00 0.00 0.00 88 1014.5
20260904194526 49 43 1.0 3.0 0.00 0.00 0.00 88 1014.8
20260904193526 49 43 2.0 4.0 0.00 0.00 0.00 88 1015.1
20260904192542 49 47 2.0 4.0 0.00 0.00 0.00 88 1015.0
20260904191522 50 79 1.0 3.0 0.00 0.00 0.00 86 1015.2
20260904190531 50 341 1.0 3.0 0.00 0.00 0.00 86 1015.1
20260904185520 50 55 0.0 3.0 0.00 0.00 0.00 86 1015.0
20260904184526 50 332 1.0 4.0 0.00 0.00 0.00 86 1015.1
20260904183533 50 359 2.0 5.0 0.00 0.00 0.00 86 1015.0
20260904182522 50 358 3.0 5.0 0.00 0.00 0.00 86 1015.4
20260904181530 50 0 3.0 4.0 0.00 0.00 0.00 86 1015.1
20260904180519 50 28 2.0 4.0 0.00 0.00 0.00 86 1014.8
20260904175526 50 34 2.0 4.0 0.00 0.00 0.00 85 1015.2
20260904174534 51 19 4.0 6.0 0.00 0.00 0.00 84 1015.2
20260904173522 51 10 3.0 5.0 0.00 0.00 0.00 84 1015.3
20260904172530 51 2 2.0 6.0 0.00 0.00 0.00 84 1015.5
20260904171518 50 357 3.0 5.0 0.00 0.00 0.00 85 1015.3
20260904170526 50 13 2.0 5.0 0.00 0.00 0.00 85 1015.4
20260904165534 50 28 2.0 4.0 0.00 0.00 0.00 86 1015.7
20260904164537 50 76 2.0 3.0 0.00 0.00 0.00 87 1016.1
20260904163531 50 40 2.0 4.0 0.00 0.00 0.00 87 1016.2
20260904162517 50 12 2.0 5.0 0.00 0.00 0.00 87 1016.3
20260904161524 50 27 1.0 4.0 0.00 0.00 0.00 86 1016.4
20260904160531 52 17 2.0 4.0 0.00 0.00 0.00 82 1016.7
20260904155518 52 331 5.0 11.0 0.00 0.00 0.00 82 1016.7
20260904154525 51 316 3.0 8.0 0.00 0.00 0.00 85 1016.9
20260904153531 50 335 1.0 3.0 0.00 0.00 0.00 86 1016.5
20260904152518 51 344 3.0 6.0 0.00 0.00 0.00 85 1017.0
20260904151524 52 327 3.0 7.0 0.00 0.00 0.00 83 1017.1
20260904150532 52 321 5.0 10.0 0.00 0.00 0.00 83 1017.0
20260904145521 52 321 5.0 11.0 0.00 0.00 0.00 84 1017.3
20260904144530 51 319 4.0 9.0 0.00 0.00 0.00 84 1017.2
20260904143517 51 325 5.0 8.0 0.00 0.00 0.00 84 1017.1
20260904142524 51 328 6.0 12.0 0.00 0.00 0.00 85 1017.3
20260904141530 51 314 5.0 11.0 0.00 0.00 0.00 85 1017.4
20260904140517 51 310 5.0 10.0 0.00 0.00 0.00 86 1017.4
20260904135524 51 311 7.0 10.0 0.00 0.00 0.00 86 1017.5
20260904134538 51 312 4.0 7.0 0.00 0.00 0.00 86 1017.5
20260904133537 51 319 4.0 7.0 0.00 0.00 0.00 85 1017.6
20260904132523 52 300 4.0 8.0 0.00 0.00 0.00 85 1017.7
20260904131530 52 331 4.0 11.0 0.00 0.00 0.00 85 1017.7
20260904130536 52 307 4.0 7.0 0.00 0.00 0.00 85 1018.1
20260904125528 52 308 4.0 8.0 0.00 0.00 0.00 85 1018.3
20260904124528 52 308 4.0 7.0 0.00 0.00 0.00 85 1018.5
20260904123541 52 311 4.0 9.0 0.00 0.00 0.00 84 1018.6
20260904122518 52 299 4.0 8.0 0.00 0.00 0.00 84 1018.7
20260904121525 52 303 4.0 7.0 0.00 0.00 0.00 84 1019.0
20260904120533 53 312 4.0 8.0 0.00 0.00 0.00 82 1018.9
20260904115519 53 302 4.0 7.0 0.00 0.00 0.00 82 1019.0
20260904114525 53 297 4.0 8.0 0.00 0.00 0.00 81 1019.1
20260904113531 54 292 4.0 8.0 0.00 0.00 0.00 81 1019.1
20260904112518 54 301 4.0 8.0 0.00 0.00 0.00 80 1019.3
20260904111525 54 296 5.0 9.0 0.00 0.00 0.00 79 1019.4
20260904110532 54 300 6.0 11.0 0.00 0.00 0.00 80 1019.4
20260904105518 54 296 5.0 9.0 0.00 0.00 0.00 80 1019.5
20260904104525 54 301 6.0 11.0 0.00 0.00 0.00 80 1019.5
20260904103531 54 305 5.0 9.0 0.00 0.00 0.00 80 1019.5
20260904102518 54 307 6.0 10.0 0.00 0.00 0.00 79 1019.5
20260904101536 54 314 7.0 11.0 0.00 0.00 0.00 79 1019.4
20260904100532 54 308 6.0 11.0 0.00 0.00 0.00 79 1019.3
20260904095518 54 309 6.0 12.0 0.00 0.00 0.00 78 1019.2
20260904094525 54 313 7.0 13.0 0.00 0.00 0.00 78 1019.1
20260904093531 54 304 5.0 11.0 0.00 0.00 0.00 77 1019.3
20260904092516 54 307 5.0 10.0 0.00 0.00 0.00 77 1019.2
20260904091523 54 318 5.0 9.0 0.00 0.00 0.00 76 1019.2
20260904090530 55 305 5.0 10.0 0.00 0.00 0.00 75 1019.4
20260904085517 55 306 5.0 9.0 0.00 0.00 0.00 72 1019.3
20260904084524 55 292 5.0 12.0 0.00 0.00 0.00 72 1019.3
20260904083530 55 303 7.0 14.0 0.00 0.00 0.00 71 1019.2
20260904082516 55 291 5.0 12.0 0.00 0.00 0.00 71 1019.2
20260904081531 56 291 6.0 11.0 0.00 0.00 0.00 69 1019.0
20260904080528 56 278 5.0 9.0 0.00 0.00 0.00 70 1019.0
20260904075535 56 297 6.0 11.0 0.00 0.00 0.00 69 1019.0
20260904074519 56 275 6.0 8.0 0.00 0.00 0.00 68 1018.8
20260904073524 57 287 6.0 13.0 0.00 0.00 0.00 66 1018.9
20260904072529 57 280 7.0 16.0 0.00 0.00 0.00 65 1018.8
20260904071535 57 283 5.0 9.0 0.00 0.00 0.00 64 1018.7
20260904070523 58 281 6.0 11.0 0.00 0.00 0.00 64 1018.5
20260904065542 58 284 6.0 11.0 0.00 0.00 0.00 63 1018.3
20260904064535 58 277 6.0 9.0 0.00 0.00 0.00 62 1018.3
20260904063519 58 259 4.0 8.0 0.00 0.00 0.00 62 1018.4
20260904062528 58 270 8.0 15.0 0.00 0.00 0.00 61 1018.2
20260904061532 59 274 5.0 10.0 0.00 0.00 0.00 60 1018.1
20260904060518 58 272 6.0 13.0 0.00 0.00 0.00 59 1018.2
20260904055524 58 280 5.0 12.0 0.00 0.00 0.00 59 1018.3
20260904054530 58 290 6.0 12.0 0.00 0.00 0.00 58 1018.2
20260904053516 59 279 7.0 13.0 0.00 0.00 0.00 57 1018.2
20260904052523 59 261 8.0 12.0 0.00 0.00 0.00 56 1018.2
20260904051529 59 262 8.0 17.0 0.00 0.00 0.00 56 1018.4
20260904050516 59 275 10.0 19.0 0.00 0.00 0.00 54 1018.2
20260904045523 60 264 6.0 14.0 0.00 0.00 0.00 52 1018.2